Showing default

TJS-17, 63524

Orbit data source: Space-Track

TJS-17, 63524 is a payload satellite owned by PLA SSF (CN) in GEO that was launched on Thu, 10 Apr 2025 UTC via a CHANG ZHENG 3B launch vehicle from the Xichang Space Center, China (XSC). Payload-class satellites include a variety of spacecraft equipped with specific instruments for various scientific and technological missions. These include communications satellites like Starlink; space stations such as the ISS; scientific satellites like the Hubble; Earth observation satellites from companies like Planet Labs, Umbra, and HawkEye 360; GPS; miniature CubeSats for education and research; and military/defense satellites.

Not visible in the next 10 days
Identifier
63524, 2025-073A
Orbit
GEO
Country
Flag of CNCN / PRC
Related business
Manufacturer
SISE
Mission
Operational Defense Sigint
Bus & Motor
FY-4?, LAE
Mass
~5,000 kg wet, ~2,500 kg dry
Launch date (UTC)
2025-04-10 (1 year ago)
Launch vehicle
CHANG ZHENG 3B
Launch site
Xichang Space Center, China (XSC)
Object type
Payload
Rocket body
Debris
Shape & HBR
Box + 2 Pan, 22.5 m
Radar Cross Section
34.063 m², Large (>1 m²)

Expand to show TLE details & history
Last TLE update: 16 hours ago

TLE from 16 hours ago
0 TJS-17
1 63524U 25073A   26145.75284703 -.00000070  00000-0  00000+0 0  9998
2 63524   1.0082  82.8583 0002816 292.0576 303.9397  1.00271713  4061
Epoch: 2026-05-25T18:04Z
TLE epoch observation values (Epoch: 2026-05-25T18:04:05.983Z)
Latitude
-0.82973°
Longitude
164.46685°
Altitude
35,779.632 km
Speed
3.075 km/s
True Right ascension
21h 15m 18s
True Declination
0° 49' 44"
Sunlit
Object was in daylight at epoch
Visualization orbit readout
Latitude
Unknown
Longitude
Unknown
Altitude
Unknown
Speed
Unknown
Apparent Right ascension
Unknown
Apparent Declination
Unknown
Sunlit
N/A
Visualization observer readout
Local Sidereal Time
19:07:51
Azimuth
Unknown
Elevation
Unknown
Doppler factor
Unknown
Orbital elements
Apogee altitude
35,799.559 km
Perigee altitude
35,775.811 km
Semi-major axis
42,165.822 km
Eccentricity
0.00028
Inclination
1.0082°
RAAN
82.8583°
Arg. of periapsis
292.0576°
True anomaly
303.91292°
Mean anomaly
303.9397°
Eccentric anomaly
303.92631°
Mean motion
0.25067 °/min
Orbital period
1,436.15 mins
BSTAR
0
Loading maneuver chart data...
Computing Atmospheric mass density...
Loading historical data...
Loading historical data...
Loading historical data...
Loading historical data...
Loading historical data...
Loading historical data...
Loading historical data...
Other satellites on launch #73 in the year 2025 (2025-04-10 UTC)

Documentation

Showing up to 5 results
|